When you browse on this site, cookies collect data to enhance your experience and personalize the content and advertising you see.
Visit our Privacy Policy to learn more. By continuing to use the site, you agree to this use of cookies and data.
  • In Österreich
  • Länderverzeichnis
  • Für 7 Tage
  • Wassertemperatur
  • Wetterkarte
  • News
  • Widgets
  • user-avatar
    Anmelden

    Stündliche Wetter Algier

    Heute, 15 Dezember, Sonntag

    Zeit Temperatur Niederschläge Wind Luftdruck Luftfeuchtigkeit
    00:00 +15°C° 0 mm 2 m/S 750 mmHg 69%
    01:00 +15°C° 0 mm 2 m/S 750 mmHg 67%
    02:00 +15°C° 0 mm 2 m/S 750 mmHg 65%
    03:00 +15°C° 0 mm 1 m/S 750 mmHg 63%
    04:00 +15°C° 0 mm 1 m/S 750 mmHg 62%
    05:00 +15°C° 0 mm 1 m/S 750 mmHg 61%
    06:00 +14°C° 0 mm 1 m/S 750 mmHg 59%
    07:00 +15°C° 0 mm 1 m/S 750 mmHg 57%
    08:00 +16°C° 0 mm 1 m/S 750 mmHg 55%
    09:00 +18°C° 0 mm 1 m/S 750 mmHg 53%
    10:00 +19°C° 0 mm 1 m/S 750 mmHg 49%
    11:00 +20°C° 0 mm 1 m/S 750 mmHg 46%
    12:00 +21°C° 0 mm 1 m/S 750 mmHg 43%
    13:00 +21°C° 0 mm 1 m/S 749 mmHg 47%
    14:00 +19°C° 0 mm 2 m/S 749 mmHg 51%
    15:00 +19°C° 0 mm 2 m/S 748 mmHg 56%
    16:00 +18°C° 0 mm 2 m/S 749 mmHg 59%
    17:00 +17°C° 0 mm 2 m/S 749 mmHg 62%
    18:00 +16°C° 0 mm 2 m/S 749 mmHg 64%
    19:00 +16°C° 0 mm 2 m/S 749 mmHg 63%
    20:00 +16°C° 0 mm 3 m/S 749 mmHg 62%
    21:00 +16°C° 0 mm 3 m/S 748 mmHg 61%
    22:00 +15°C° 0 mm 4 m/S 748 mmHg 60%
    23:00 +15°C° 0 mm 4 m/S 748 mmHg 58%

    Morgen, 16 Dezember, Montag

    Zeit Temperatur Niederschläge Wind Luftdruck Luftfeuchtigkeit
    00:00 +15°C° 0 mm 4 m/S 748 mmHg 56%
    01:00 +15°C° 0 mm 5 m/S 747 mmHg 56%
    02:00 +15°C° 0 mm 5 m/S 747 mmHg 55%
    03:00 +15°C° 0 mm 6 m/S 747 mmHg 54%
    04:00 +15°C° 0 mm 6 m/S 746 mmHg 54%
    05:00 +15°C° 0 mm 6 m/S 746 mmHg 54%
    06:00 +15°C° 0 mm 7 m/S 746 mmHg 54%
    07:00 +16°C° 0 mm 7 m/S 746 mmHg 53%
    08:00 +16°C° 0 mm 8 m/S 746 mmHg 52%
    09:00 +17°C° 0 mm 8 m/S 746 mmHg 51%
    10:00 +18°C° 0 mm 8 m/S 746 mmHg 48%
    11:00 +19°C° 0 mm 9 m/S 745 mmHg 46%
    12:00 +19°C° 0 mm 9 m/S 745 mmHg 43%
    13:00 +21°C° 0 mm 8 m/S 744 mmHg 42%
    14:00 +21°C° 0 mm 8 m/S 743 mmHg 42%
    15:00 +21°C° 0 mm 7 m/S 743 mmHg 41%
    16:00 +20°C° 0 mm 7 m/S 742 mmHg 42%
    17:00 +18°C° 0 mm 7 m/S 742 mmHg 43%
    18:00 +17°C° 0 mm 8 m/S 742 mmHg 44%
    19:00 +17°C° 0 mm 8 m/S 742 mmHg 46%
    20:00 +17°C° 0 mm 8 m/S 742 mmHg 47%
    21:00 +17°C° 0 mm 9 m/S 742 mmHg 48%
    22:00 +17°C° 0 mm 9 m/S 742 mmHg 49%
    23:00 +17°C° 0 mm 9 m/S 742 mmHg 49%

    übermorgen, 17 Dezember, Dienstag

    Zeit Temperatur Niederschläge Wind Luftdruck Luftfeuchtigkeit
    00:00 +16°C° 0 mm 10 m/S 741 mmHg 50%
    01:00 +16°C° 0 mm 9 m/S 741 mmHg 50%
    02:00 +16°C° 0 mm 8 m/S 740 mmHg 50%
    03:00 +16°C° 0 mm 7 m/S 740 mmHg 51%
    04:00 +16°C° 0 mm 7 m/S 740 mmHg 51%
    05:00 +16°C° 0 mm 7 m/S 739 mmHg 52%
    06:00 +15°C° 0 mm 7 m/S 739 mmHg 52%
    07:00 +16°C° 0 mm 6 m/S 739 mmHg 51%
    08:00 +16°C° 0 mm 5 m/S 739 mmHg 51%
    09:00 +18°C° 0 mm 4 m/S 739 mmHg 50%
    10:00 +17°C° 0 mm 5 m/S 738 mmHg 47%
    11:00 +19°C° 0 mm 6 m/S 738 mmHg 45%
    12:00 +20°C° 0 mm 7 m/S 738 mmHg 42%
    13:00 +18°C° 0.1 mm 7 m/S 738 mmHg 46%
    14:00 +17°C° 0.1 mm 6 m/S 738 mmHg 49%
    15:00 +16°C° 0.1 mm 6 m/S 738 mmHg 53%
    16:00 +15°C° 0.7 mm 6 m/S 739 mmHg 58%
    17:00 +12°C° 0.7 mm 7 m/S 739 mmHg 64%
    18:00 +10°C° 0.7 mm 7 m/S 740 mmHg 69%
    19:00 +11°C° 0.6 mm 7 m/S 740 mmHg 69%
    20:00 +11°C° 0.6 mm 8 m/S 741 mmHg 69%
    21:00 +11°C° 0.6 mm 8 m/S 741 mmHg 70%
    22:00 +10°C° 0.5 mm 9 m/S 741 mmHg 73%
    23:00 +9°C° 0.5 mm 10 m/S 742 mmHg 76%

    18 Dezember, Mittwoch

    Zeit Temperatur Niederschläge Wind Luftdruck Luftfeuchtigkeit
    00:00 +9°C° 0.5 mm 11 m/S 742 mmHg 79%
    01:00 +9°C° 0.1 mm 11 m/S 742 mmHg 75%
    02:00 +9°C° 0.1 mm 11 m/S 742 mmHg 70%
    03:00 +9°C° 0.1 mm 10 m/S 743 mmHg 66%
    04:00 +9°C° 0 mm 11 m/S 743 mmHg 67%
    05:00 +9°C° 0 mm 11 m/S 743 mmHg 67%
    06:00 +9°C° 0 mm 12 m/S 744 mmHg 68%
    07:00 +11°C° 0 mm 11 m/S 745 mmHg 66%
    08:00 +11°C° 0 mm 11 m/S 745 mmHg 64%
    09:00 +11°C° 0 mm 11 m/S 746 mmHg 61%
    10:00 +12°C° 0 mm 11 m/S 746 mmHg 58%
    11:00 +13°C° 0 mm 11 m/S 747 mmHg 55%
    12:00 +13°C° 0 mm 11 m/S 747 mmHg 51%
    13:00 +13°C° 0 mm 10 m/S 747 mmHg 48%
    14:00 +15°C° 0 mm 9 m/S 748 mmHg 46%
    15:00 +15°C° 0 mm 9 m/S 748 mmHg 43%
    16:00 +13°C° 0 mm 8 m/S 748 mmHg 49%
    17:00 +13°C° 0 mm 6 m/S 749 mmHg 56%
    18:00 +13°C° 0 mm 5 m/S 749 mmHg 63%
    19:00 +12°C° 0 mm 5 m/S 749 mmHg 65%
    20:00 +12°C° 0 mm 5 m/S 750 mmHg 67%
    21:00 +12°C° 0 mm 5 m/S 750 mmHg 69%
    22:00 +12°C° 0 mm 4 m/S 750 mmHg 68%
    23:00 +12°C° 0 mm 4 m/S 750 mmHg 68%

    19 Dezember, Donnerstag

    Zeit Temperatur Niederschläge Wind Luftdruck Luftfeuchtigkeit
    00:00 +12°C° 0 mm 4 m/S 750 mmHg 68%
    01:00 +12°C° 0 mm 4 m/S 750 mmHg 66%
    02:00 +13°C° 0 mm 4 m/S 749 mmHg 65%
    03:00 +13°C° 0 mm 4 m/S 749 mmHg 64%
    04:00 +13°C° 0 mm 4 m/S 749 mmHg 63%
    05:00 +13°C° 0 mm 4 m/S 749 mmHg 61%
    06:00 +13°C° 0 mm 5 m/S 749 mmHg 60%
    07:00 +14°C° 0 mm 5 m/S 749 mmHg 59%
    08:00 +15°C° 0 mm 5 m/S 750 mmHg 58%
    09:00 +16°C° 0 mm 5 m/S 750 mmHg 57%
    10:00 +17°C° 0 mm 5 m/S 750 mmHg 53%
    11:00 +20°C° 0 mm 5 m/S 749 mmHg 48%
    12:00 +21°C° 0 mm 5 m/S 749 mmHg 44%
    13:00 +21°C° 0 mm 5 m/S 749 mmHg 44%
    14:00 +21°C° 0 mm 4 m/S 749 mmHg 44%
    15:00 +21°C° 0 mm 4 m/S 749 mmHg 44%
    16:00 +20°C° 0 mm 4 m/S 749 mmHg 46%
    17:00 +19°C° 0 mm 3 m/S 749 mmHg 48%
    18:00 +18°C° 0 mm 3 m/S 750 mmHg 49%
    19:00 +18°C° 0 mm 3 m/S 750 mmHg 50%
    20:00 +17°C° 0 mm 3 m/S 750 mmHg 50%
    21:00 +17°C° 0 mm 3 m/S 750 mmHg 51%
    22:00 +17°C° 0 mm 4 m/S 749 mmHg 51%
    23:00 +16°C° 0 mm 5 m/S 749 mmHg 52%

    20 Dezember, Freitag

    Zeit Temperatur Niederschläge Wind Luftdruck Luftfeuchtigkeit
    00:00 +15°C° 0 mm 6 m/S 749 mmHg 52%
    01:00 +15°C° 0 mm 6 m/S 748 mmHg 51%
    02:00 +15°C° 0 mm 7 m/S 747 mmHg 51%
    03:00 +15°C° 0 mm 7 m/S 747 mmHg 50%
    04:00 +15°C° 0 mm 7 m/S 747 mmHg 49%
    05:00 +15°C° 0 mm 7 m/S 746 mmHg 48%
    06:00 +15°C° 0 mm 7 m/S 746 mmHg 47%
    07:00 +16°C° 0 mm 7 m/S 746 mmHg 47%
    08:00 +16°C° 0 mm 7 m/S 746 mmHg 46%
    09:00 +17°C° 0 mm 7 m/S 746 mmHg 46%
    10:00 +18°C° 0 mm 8 m/S 746 mmHg 45%
    11:00 +20°C° 0 mm 8 m/S 745 mmHg 45%
    12:00 +21°C° 0 mm 8 m/S 745 mmHg 44%
    13:00 +21°C° 0 mm 7 m/S 745 mmHg 47%
    14:00 +21°C° 0 mm 7 m/S 744 mmHg 49%
    15:00 +21°C° 0 mm 6 m/S 744 mmHg 52%
    16:00 +20°C° 0.4 mm 7 m/S 744 mmHg 56%
    17:00 +18°C° 0.4 mm 8 m/S 745 mmHg 61%
    18:00 +18°C° 0.4 mm 9 m/S 745 mmHg 65%
    19:00 +17°C° 1.8 mm 8 m/S 745 mmHg 71%
    20:00 +17°C° 1.8 mm 7 m/S 745 mmHg 76%
    21:00 +16°C° 1.8 mm 6 m/S 745 mmHg 82%
    22:00 +16°C° 2.5 mm 6 m/S 745 mmHg 85%
    23:00 +16°C° 2.5 mm 7 m/S 745 mmHg 88%
    Mehr zeigen